Regional Weather Roundup
Issued by NWS Little Rock, AR

Home | Current Version | Previous Version | Text Only | Print | Product List | Glossary Off
Versions: 1 2 3 4 5 6 7 8 9 10 11 12 13 14 15 16 17 18 19 20 21 22 23 24 25 26 27 28 29 30 31 32 33 34 35 36 37 38 39 40 41 42 43 44 45 46 47 48 49 50

000
ASUS44 KLZK 011805
RWRLZK

WEATHER ROUNDUP FOR ARKANSAS
NATIONAL WEATHER SERVICE LITTLE ROCK AR
100 PM CDT WED OCT 01 2014

NOTE: "FAIR" INDICATES FEW OR NO CLOUDS BELOW 12,000 FEET WITH NO
SIGNIFICANT WEATHER AND/OR OBSTRUCTIONS TO VISIBILITY.

ARZ001-003-010-029-011900-
NORTHWEST ARKANSAS

CITY           SKY/WX    TMP DP  RH WIND       PRES   REMARKS
FAYETTEVILLE   FAIR      82  68  62 S18G25    29.86F HX  85
6HR MIN TEMP:  67; 6HR MAX TEMP:  83;

FORT SMITH     FAIR      86  69  56 SE10      29.83F HX  90
6HR MIN TEMP:  65; 6HR MAX TEMP:  86;

HARRISON       FAIR      83  68  60 S8G20     29.88F HX  86
6HR MIN TEMP:  61; 6HR MAX TEMP:  83;

BENTONVILLE    PTSUNNY   82  66  57 SW12G17   29.86F HX  85
6HR MIN TEMP:  66; 6HR MAX TEMP:  82;

ROGERS         PTSUNNY   82  67  60 S15       29.86F
6HR MIN TEMP:  72; 6HR MAX TEMP:  83;

SILOAM SPGS    PTSUNNY   81  66  61 S17G23    29.86S
6HR MIN TEMP:  68; 6HR MAX TEMP:  81;

HIGHFILL       PTSUNNY   81  67  62 S17G25    29.85F
6HR MIN TEMP:  63; 6HR MAX TEMP:  82;

SPRINGDALE     PTSUNNY   82  68  61 S15G23    29.88F HX  85
$$

ARZ004-005-016-011900-
NORTH CENTRAL ARKANSAS

CITY           SKY/WX    TMP DP  RH WIND       PRES   REMARKS
BATESVILLE     FAIR      90  64  43 S15G22    29.87F HX  91
FLIPPIN        PTSUNNY   84  64  51 S7        29.87F HX  86
6HR MIN TEMP:  57; 6HR MAX TEMP:  84;

MTN HOME       PTSUNNY   85  67  54 S8        29.87F HX  87
6HR MIN TEMP:  59; 6HR MAX TEMP:  85;

$$

ARZ040-041-011900-
WEST CENTRAL ARKANSAS

CITY           SKY/WX    TMP DP  RH WIND       PRES   REMARKS
MENA           CLOUDY    86  70  58 CALM      29.88F HX  90
MOUNT IDA      FAIR      83  70  64 VRB3      29.86F HX  87
6HR MIN TEMP:  68; 6HR MAX TEMP:  84;

$$

ARZ009-017-025-026-028-011900-
NORTHEAST ARKANSAS

CITY           SKY/WX    TMP DP  RH WIND       PRES   REMARKS
CORNING        LGT RAIN  86  66  51 S13G21    29.90F HX  88
JONESBORO      FAIR      89  66  46 SW12      29.88F HX  91
6HR MIN TEMP:  61; 6HR MAX TEMP:  90;

NEWPORT        PTSUNNY   90  68  48 S18G24    29.89F HX  94
6HR MIN TEMP:  63; 6HR MAX TEMP:  90;

WALNUT RIDGE   PTSUNNY   88  66  48 SW9       29.88F HX  90
6HR MIN TEMP:  61; 6HR MAX TEMP:  88;

BLYTHEVILLE    PTSUNNY   88  64  44 S13       29.92F HX  89
6HR MIN TEMP:  67; 6HR MAX TEMP:  88;

NW BLYTHEVILLE MOSUNNY   88  64  45 S10       29.91F HX  89
$$

ARZ022-023-033-042-044-011900-
CENTRAL ARKANSAS

CITY           SKY/WX    TMP DP  RH WIND       PRES   REMARKS
LITTLE ROCK    PTSUNNY   84  69  60 SW8       29.89F HX  88
6HR MIN TEMP:  69; 6HR MAX TEMP:  86;

N LITTLE ROCK  PTSUNNY   84  72  67 SW12      29.90S HX  90
JACKSONVILLE   FAIR      87  71  59 SW10      29.88F HX  92
6HR MIN TEMP:  64; 6HR MAX TEMP:  87;

SEARCY         PTSUNNY   86  71  60 S9G20     29.90F HX  91
6HR MIN TEMP:  60; 6HR MAX TEMP:  87;

HOT SPRINGS    FAIR      84  71  65 S6        29.89F HX  89
6HR MIN TEMP:  70; 6HR MAX TEMP:  84; 6HR PCP: TRACE;

RUSSELLVILLE   PTSUNNY   87  71  58 VRB6      29.86F HX  93
6HR MIN TEMP:  62; 6HR MAX TEMP:  87;

CLINTON        PTSUNNY   82  72  69 W7        29.89F HAZE    HX  87
$$

ARZ036-011900-
EAST ARKANSAS

CITY           SKY/WX    TMP DP  RH WIND       PRES   REMARKS
WEST MEMPHIS   FAIR      88  68  51 S10       29.90F HX  91
6HR MIN TEMP:  64; 6HR MAX TEMP:  89;

$$

ARZ050-053-066-070-073-011900-
SOUTHWEST ARKANSAS

CITY           SKY/WX    TMP DP  RH WIND       PRES   REMARKS
ARKADELPHIA    FAIR      84  74  72 S7        29.88F HX  91
6HR MIN TEMP:  70; 6HR MAX TEMP:  85; 6HR PCP:  0.62;

CAMDEN         FAIR      91  68  46 SW13G18   29.87F HX  95
TEXARKANA      FAIR      87  71  58 S9        29.87F HX  93
6HR MIN TEMP:  72; 6HR MAX TEMP:  87;

EL DORADO      PTSUNNY   86  70  58 S9        29.89F HX  90
6HR MIN TEMP:  71; 6HR MAX TEMP:  88;

DE QUEEN       FAIR      85  73  67 SW10      29.84F HX  91
6HR MIN TEMP:  67; 6HR MAX TEMP:  85;

$$

ARZ056-057-069-011900-
SOUTHEAST ARKANSAS

CITY           SKY/WX    TMP DP  RH WIND       PRES   REMARKS
PINE BLUFF     LGT RAIN  83  70  64 S12       29.89F HX  87
6HR MIN TEMP:  67; 6HR MAX TEMP:  84; 6HR PCP: TRACE;

STUTTGART      PTSUNNY  N/A N/A N/A S9        29.90F
MONTICELLO     CLOUDY    82  74  76 S5        29.90F HX  88
6HR MIN TEMP:  71; 6HR MAX TEMP:  86; 6HR PCP:  0.07;


$$




USA.gov is the U.S. government's official web portal to all federal, state and local government web resources and services.